Location: Unspecified
(50.7693°N, 0.0000°E)
Time: 03:59:00
(UTC+00:00)

SR - Pass Details

Date: 01 July 2019
Orbit: 580 x 876 km, 66.7° (Epoch: 17 July)

Event Time Altitude Azimuth Distance (km) Brightness Sun altitude
Rises 00:48:37 0° 179° (S) 2,787 - -15.4°
Reaches altitude 10° 00:51:09 10° 165° (SSE) 1,895 - -15.4°
Exits shadow 00:52:41 18° 147° (SSE) 1,476 ? -15.3°
Maximum altitude 00:54:29 23° 112° (ESE) 1,271 ? -15.2°
Drops below altitude 10° 00:57:55 10° 60° (ENE) 1,957 ? -15.1°
Sets 01:00:34 0° 46° (NE) 2,903 ? -15.0°
